Location: Bannatyne
(13.0833°N, 59.5333°W)
Time: 08:27:39
(UTC+00:00)

Transit 4A - All Passes

Search period start: 28 January 2020 00:00
Search period end: 07 February 2020 00:00
Orbit: 872 x 973 km, 66.8° (Epoch: 27 January)

Date Brightness Start Highest point End Pass type
(mag) Time Alt. Az. Time Alt. Az. Time Alt. Az.
28 Jan - 08:04:08 10° S 08:09:53 40° ESE 08:15:29 10° NE visible
28 Jan - 09:52:04 10° WSW 09:56:06 18° WNW 10:00:06 10° NNW visible
28 Jan - 19:08:22 10° N 19:13:43 36° ENE 19:19:08 10° SE daylight
28 Jan - 20:55:45 10° WNW 20:59:43 19° WSW 21:03:45 10° SSW daylight
29 Jan - 08:13:00 10° SSW 08:19:09 69° ESE 08:25:08 10° NNE visible
29 Jan - 19:17:14 10° NNW 19:23:01 62° ENE 19:28:57 10° SSE daylight
30 Jan - 08:22:17 10° SSW 08:28:25 72° WNW 08:34:25 10° NNE visible
30 Jan - 19:26:26 10° NNW 19:32:18 78° WSW 19:38:19 10° SSE daylight
31 Jan - 06:47:57 10° SE 06:51:44 17° ESE 06:55:27 10° ENE visible
31 Jan - 08:31:58 10° SW 08:37:44 42° WNW 08:43:23 10° N visible
31 Jan - 17:52:02 10° NNE 17:55:18 15° ENE 17:58:37 10° E daylight
31 Jan - 19:35:59 10° NW 19:41:34 45° WSW 19:47:16 10° S daylight
01 Feb - 06:55:45 10° SSE 07:00:58 29° ESE 07:06:04 10° NE night (unlit)
01 Feb - 08:42:09 10° WSW 08:47:05 25° WNW 08:51:56 10° NNW visible
01 Feb - 17:59:55 10° NNE 18:04:43 26° ENE 18:09:36 10° ESE daylight
01 Feb - 19:45:58 10° NW 19:50:48 27° WSW 19:55:44 10° SSW daylight
02 Feb - 07:04:17 10° S 07:10:13 49° ESE 07:15:59 10° NE night (unlit)
02 Feb - 08:53:13 10° W 08:56:30 15° WNW 08:59:45 10° NNW visible
02 Feb - 18:08:30 10° N 18:14:03 44° ENE 18:19:44 10° SE daylight
02 Feb - 19:56:45 10° WNW 20:00:02 15° WSW 20:03:21 10° SW daylight
03 Feb - 07:13:18 10° SSW 07:19:29 83° ESE 07:25:29 10° NNE night (unlit)
03 Feb - 18:17:29 10° NNW 18:23:22 75° ENE 18:29:22 10° SSE daylight
04 Feb - 05:41:03 10° SE 05:42:50 11° ESE 05:44:35 10° E night (unlit)
04 Feb - 07:22:43 10° SSW 07:28:46 59° WNW 07:34:39 10° N night (unlit)
04 Feb - 16:45:35 10° ENE 16:46:15 10° ENE 16:46:54 10° ENE daylight
04 Feb - 18:26:49 10° NNW 18:32:38 65° WSW 18:38:36 10° S daylight
05 Feb - 05:47:39 10° SSE 05:52:04 21° ESE 05:56:23 10° ENE night (unlit)
05 Feb - 07:32:34 10° SW 07:38:05 35° WNW 07:43:29 10° N night (unlit)
05 Feb - 16:51:43 10° NNE 16:55:42 19° ENE 16:59:44 10° ESE daylight
05 Feb - 18:36:30 10° NW 18:41:53 37° WSW 18:47:23 10° S daylight
06 Feb - 05:55:46 10° S 06:01:18 35° ESE 06:06:40 10° NE night (unlit)
06 Feb - 07:43:01 10° WSW 07:47:28 21° WNW 07:51:51 10° NNW night (unlit)
06 Feb - 16:59:56 10° N 17:05:05 31° ENE 17:10:19 10° SE daylight
06 Feb - 18:46:42 10° WNW 18:51:07 22° WSW 18:55:37 10° SSW daylight
